Location: Observatorio del Centro Ecologico de Sonora
(29.0667°N, 110.9333°W)
Time: 02:46:36
(UTC-07:00)

ISS - Visible Passes

Search period start: 16 January 2018 00:00
Search period end: 26 January 2018 00:00
Orbit: 402 x 406 km, 51.6° (Epoch: 16 January)

Date Brightness Start Highest point End Pass type
(mag) Time Alt. Az. Time Alt. Az. Time Alt. Az.
16 Jan -2.1 05:53:09 21° N 05:54:27 28° NE 05:57:18 10° ESE visible
17 Jan -0.6 05:03:14 12° ENE 05:03:14 12° ENE 05:03:50 10° ENE visible
17 Jan -3.1 06:35:55 13° WNW 06:38:27 36° SW 06:41:29 10° SSE visible
18 Jan -4.0 05:46:05 86° NNE 05:46:06 86° NE 05:49:22 10° SE visible
19 Jan -0.4 04:56:19 12° ESE 04:56:19 12° ESE 04:56:41 10° ESE visible
19 Jan -1.6 06:29:00 11° WSW 06:29:49 12° SW 06:31:14 10° SSW visible
20 Jan -1.6 05:39:18 17° S 05:39:18 17° S 05:40:23 10° S visible
21 Jan -2.1 19:40:34 10° SW 19:42:19 29° SSW 19:42:19 29° SSW visible
22 Jan -2.8 18:48:33 10° S 18:51:25 29° SE 18:52:36 23° E visible
23 Jan -2.5 19:32:18 10° WSW 19:35:16 33° NW 19:35:27 33° NW visible
24 Jan -3.8 18:39:31 10° SW 18:42:45 80° NW 18:45:33 13° NE visible
25 Jan -1.2 19:25:05 10° WNW 19:26:53 14° NW 19:28:13 11° N visible
